Regional Weather Roundup
Issued by NWS

Home | Current Version | Previous Version | Graphics & Text | Print | Product List | Glossary On
Versions: 1 2 3 4 5 6 7 8 9 10 11 12 13 14 15 16 17 18 19 20 21 22 23 24 25 26 27 28 29 30 31 32 33 34 35 36 37 38 39 40 41 42 43 44 45 46 47 48 49 50
000
ASUS43 KFSD 181510
RWRSD

WEATHER ROUNDUP FOR SOUTH DAKOTA
NATIONAL WEATHER SERVICE SIOUX FALLS SD
900 AM CST SAT NOV 18 2017

NOTE: "FAIR" INDICATES FEW OR NO CLOUDS BELOW 12,000 FEET WITH NO
SIGNIFICANT WEATHER AND/OR OBSTRUCTIONS TO VISIBILITY.


SDZ001>005-009-010-012>017-181600-
NORTHWEST AND NORTH CENTRAL SOUTH DAKOTA

CITY           SKY/WX    TMP DP  RH WIND       PRES   REMARKS
BUFFALO          N/A     25  21  85 NW14      30.04R WCI  13
FAITH            N/A     24  22  91 NW13      30.10R WCI  12
MOBRIDGE       PTCLDY    22  15  75 NW16      30.07R WCI   8
$$

SDZ012>016-024>037-041>051-057-063-072>074-181600-
SOUTHWEST AND SOUTH CENTRAL SOUTH DAKOTA

CITY           SKY/WX    TMP DP  RH WIND       PRES   REMARKS
RAPID CTY ARPT CLEAR     36  18  48 NW14      30.12R
PIERRE         MOSUNNY   29  25  85 NW16      30.10R WCI  17
CUSTER         CLEAR     25  13  60 VRB7      30.07R WCI  17
ELLSWORTH AFB  CLEAR     35  18  49 NW14      30.11R WCI  26
PHILIP         SUNNY     32  27  81 NW12      30.12R WCI  23
PINE RIDGE     SUNNY     29  24  82 VRB3      30.15R
SPEARFISH      FAIR      32  14  47 W16G26    30.11R WCI  21
WINNER         FAIR      36  29  75 NW14      30.07R
$$

SDZ004>011-016>023-039-040-181600-
NORTHEAST SOUTH DAKOTA

CITY           SKY/WX    TMP DP  RH WIND       PRES   REMARKS
ABERDEEN       MOSUNNY   24  17  74 NW22G28   30.05R WCI   9
WATERTOWN      CLOUDY    24  18  77 NW12      29.94R WCI  13
BROOKINGS      MOSUNNY   26  20  77 NW16      29.94R WCI  14
SISSETON         N/A     24  17  74 NW21G28   29.97R WCI   9
$$

SDZ017-020-022-023-036>040-048>070-181600-
SOUTHEAST SOUTH DAKOTA

CITY           SKY/WX    TMP DP  RH WIND       PRES   REMARKS
SIOUX FALLS    MOSUNNY   34  22  61 NW12      29.94R WCI  25
HURON          CLOUDY    27  19  72 N17       30.03R WCI  14
CHAMBERLAIN    SUNNY     35  29  78 NW17G24   30.06R WCI  25
MITCHELL       MOSUNNY   30  22  72 NW16      30.02R WCI  19
YANKTON        SUNNY     32  24  72 NW15      29.97R WCI  22
$$

ABBREVIATIONS USED IN REMARKS
   TC - TEMPERATURE IN CELSIUS
  WCI - WIND CHILL INDEX
   HX - HEAT INDEX
  VSB - VISIBILITY





USA.gov is the U.S. government's official web portal to all federal, state and local government web resources and services.